Location: Écuvilly
(49.6505°N, 2.9206°E)
Time: 10:33:36
(UTC+00:00)

Daily predictions for brighter satellites

Satellite Brightness Start Highest point End
(mag) Time Altitude Azimuth Time Altitude Azimuth Time Altitude Azimuth
ATLAS 2AS CENTAUR R/B 3.8 16:26:05 10° NW 16:31:42 26° N 16:37:13 10° ENE
Cosmos 1844 Rocket 4.0 16:29:04 10° WSW 16:34:12 36° NW 16:39:22 10° NNE
UNK 4.3 16:30:38 10° NNE 16:34:56 37° E 16:39:13 10° SSE
Cosmos 1459 Rocket 4.3 16:29:36 10° SSW 16:35:55 80° W 16:42:20 10° N
DNEPR-1 R/B 4.4 16:31:45 10° NW 16:36:09 62° SW 16:41:13 10° SSE
YAOGAN 1 4.3 16:34:28 10° E 16:36:16 12° ENE 16:38:03 10° NNE
COSMOS 2406 4.4 16:36:43 10° N 16:41:02 21° NE 16:45:21 10° E
Cosmos 2084 Rocket 3.4 16:37:21 10° SW 16:41:33 83° SE 16:45:46 10° NE
Cosmos 2100 Rocket 4.5 16:37:29 10° SSW 16:43:37 65° WNW 16:49:44 10° N
ATLAS CENTAUR R/B 2.5 16:41:03 10° W 16:44:05 28° NW 16:47:08 10° NNE
Cosmos 1441 Rocket 3.4 16:42:28 10° NNW 16:45:47 64° W 16:49:07 10° S
Cosmos 2221 Rocket 4.5 16:42:01 10° NNW 16:46:25 55° W 16:50:44 10° S
SAR-Lupe-4 3.9 16:43:06 10° SE 16:46:30 44° ENE 16:49:57 10° N
Cosmos 1833 Rocket 3.0 16:40:58 10° NNW 16:46:38 76° WSW 16:52:15 10° SSE
ARIANE 5 R/B 2.6 16:42:23 10° SE 16:47:11 51° ENE 16:52:03 10° N
USA 215 3.4 16:48:11 10° SE 16:54:44 83° SW 17:01:20 10° WNW
Timation 1 Rocket 4.4 16:49:07 10° NNW 16:55:00 57° NE 17:00:52 10° SE
IRS-P3 4.4 16:52:54 10° SE 16:57:59 47° ENE 17:03:05 10° N
MOS 1 Rocket 3.7 16:56:12 10° SE 17:00:07 34° ENE 17:04:13 10° N
ATLAS 5 CENTAUR R/B 2.5 16:56:07 10° NW 17:00:23 57° SW 17:05:41 10° SSE
Cosmos 1484 Rocket 4.2 17:00:50 10° SSW 17:04:08 38° W 17:07:28 10° NNW
Iridium 4 Rocket 4.4 17:01:29 10° SSW 17:06:21 49° W 17:10:51 10° N
Resurs 01 Rocket 3.6 17:08:58 11° NE 17:08:58 11° NE 17:09:52 10° NE
Cosmos 2233 Rocket 4.0 17:02:22 10° S 17:08:41 87° E 17:15:04 10° N
RESURS DK-1 2.2 17:05:11 10° NNW 17:09:11 64° ENE 17:13:09 10° SE
Cosmos 1602 4.2 17:06:52 10° NNE 17:09:28 24° ENE 17:12:03 10° SE
Cosmos 407 Rocket 3.7 17:04:46 10° S 17:09:43 48° ESE 17:14:39 10° NNE
Cosmos 1725 Rocket 4.5 17:03:30 10° SSW 17:09:44 67° WNW 17:16:03 10° N
Cosmos 2061 Rocket 4.0 17:04:54 10° S 17:11:12 83° E 17:17:28 10° N
Geosat FO 4.4 17:12:29 10° SE 17:15:12 40° NE 17:17:56 10° NNW
ISS -3.1 17:12:04 10° SW 17:15:14 41° SSE 17:17:12 20° E
Cosmos 1782 Rocket 3.8 17:11:02 10° SSW 17:15:28 74° W 17:19:55 10° N
CZ-2D R/B 2.6 17:13:12 10° SSE 17:16:21 82° ENE 17:19:31 10° NNW
Cosmos 1869 3.1 17:13:48 10° S 17:17:13 50° E 17:20:38 10° NNE
ERS-1 4.4 17:13:13 10° SSE 17:18:21 78° ENE 17:23:28 10° NNW
USA 281 4.3 17:15:06 15° E 17:18:47 23° NE 17:23:44 10° N
SPOT 1/Viking Rocket 3.9 17:14:17 10° SE 17:19:08 43° ENE 17:24:02 10° N
Cosmos 1300 Rocket 4.1 17:15:20 10° SSW 17:19:40 61° WNW 17:24:01 10° N
COSMO-SKYMED 1 3.7 17:21:26 19° ENE 17:22:32 21° E 17:25:43 10° SE
SJ-12 3.7 17:19:22 10° SSE 17:23:10 88° WSW 17:26:59 10° NNW
Cosmos 1464 Rocket 4.4 17:19:00 10° SSE 17:24:43 38° E 17:30:23 10° NNE
AQUARIUS 4.0 17:22:33 10° SSE 17:26:58 81° ENE 17:31:24 10° NNW
SL-12 R/B(2) 4.4 17:19:46 10° SSW 17:27:37 67° ESE 17:36:59 11° NE
Cosmos 540 Rocket 3.4 17:24:03 10° NNW 17:29:13 87° ENE 17:34:20 10° SSE
BREEZE-M DEB (TANK) 2.5 17:27:05 10° SW 17:29:30 53° SSE 17:32:21 21° E
Cosmos 1400 Rocket 3.7 17:28:08 10° SSE 17:31:12 24° E 17:31:12 24° E
Cosmos 1975 Rocket 3.7 17:28:15 10° NNW 17:32:32 58° W 17:36:49 10° S
Spot 4 Rocket 4.2 17:28:05 10° SE 17:32:56 47° ENE 17:37:50 10° N
Cosmos 1763 Rocket 3.7 17:29:27 10° NNW 17:34:41 74° WSW 17:39:48 10° SSE
Cosmos 1812 2.0 17:33:45 10° S 17:36:35 52° E 17:37:34 33° NE
Cosmos 1140 Rocket 4.2 17:36:36 10° SW 17:41:39 54° WNW 17:46:43 10° NNE
Cosmos 2151 Rocket 3.9 17:37:37 10° SSE 17:41:50 42° E 17:45:29 13° NNE
Cosmos 2058 2.7 17:38:38 10° N 17:42:37 66° ENE 17:46:34 10° SSE
SMAP 4.3 17:38:40 10° S 17:43:07 44° W 17:47:36 10° NNW
Cosmos 44 Rocket 3.3 17:39:45 10° SSW 17:44:27 60° ESE 17:47:06 26° NE
SKYMED 2 3.6 17:45:23 12° NNE 17:49:22 55° E 17:53:37 10° S
Cosmos 1943 Rocket 2.1 17:43:51 10° SSW 17:49:28 82° ESE 17:54:09 15° NNE
Helios 1A Rocket 3.5 17:51:57 29° SE 17:51:57 29° SE 17:54:06 10° SSE
Okean 1 Rocket 3.6 17:47:47 10° SSE 17:51:43 34° E 17:51:43 34° E
CZ-2D R/B 3.3 17:47:51 10° SSE 17:51:59 74° ENE 17:56:12 10° N
SJ-7 4.1 17:48:23 10° SSE 17:51:59 57° ENE 17:55:37 10° N
IRAS Rocket 4.1 17:46:56 10° SSE 17:52:27 69° ENE 17:57:57 10° NNW
Sich 1 Rocket 4.1 17:48:38 10° SSE 17:52:48 37° E 17:53:29 35° ENE
Cosmos 2082 Rocket 2.1 17:47:44 10° NNW 17:53:24 86° ENE 17:59:01 10° SSE
PSLV R/B 3.4 17:49:38 10° SSE 17:53:34 55° ENE 17:57:31 10° N
Cosmos 2026 Rocket 4.2 17:51:59 10° N 17:57:43 41° ENE 18:03:29 10° SE
Cosmos 1072 Rocket 4.3 17:51:42 10° S 17:57:47 70° E 18:03:51 10° NNE
Cosmos 2278 Rocket 2.1 17:52:35 10° SSW 17:58:15 89° ESE 18:02:47 17° NNE
NOAA 6 4.1 17:55:21 10° SE 18:00:20 53° ENE 18:05:20 10° N
BREEZE-M DEB (TANK) 3.3 17:58:26 10° SW 18:01:15 58° SSE 18:03:16 34° E
Aureole 3 Rocket 2.5 17:58:17 10° SSW 18:01:17 68° W 18:03:12 22° N
BREEZE-M DEB (TANK) 2.9 17:59:34 10° WSW 18:02:11 85° SSE 18:04:09 35° ENE
SL-16 R/B 4.2 17:59:57 10° N 18:05:20 31° WNW 18:10:42 10° WSW
Geosat 4.0 18:04:10 33° ESE 18:06:13 56° NE 18:11:07 10° NNW
Cosmos 2251 Rocket 3.4 18:03:47 10° SSW 18:09:03 82° ESE 18:12:38 22° NNE
YAOGAN 1 2.4 18:07:10 10° SSE 18:11:26 87° E 18:15:43 10° NNW
Cosmos 371 Rocket 3.4 18:08:03 10° S 18:12:40 49° ESE 18:12:52 49° E
Cosmos 304 Rocket 3.8 18:09:10 10° S 18:13:44 52° ESE 18:13:57 51° E
Cosmos 841 Rocket 3.4 18:09:11 10° NNW 18:14:27 70° ENE 18:17:15 28° SE
SJ 16-02 1.1 18:11:01 10° S 18:15:18 67° ESE 18:15:42 62° ENE
SL-19 R/B 4.0 18:10:28 10° SSE 18:15:40 90° WSW 18:20:57 10° NNW
Nadezhda 4 Rocket 4.0 18:13:33 10° N 18:19:53 84° W 18:26:07 10° S
CZ-4C R/B 3.9 18:15:48 10° WNW 18:20:01 23° N 18:22:35 18° NNE
Cosmos 1862 3.6 18:18:41 10° NNW 18:22:15 58° W 18:25:49 10° S
Resurs 1-3 3.6 18:19:08 10° S 18:23:26 77° WSW 18:27:45 10° NNW
ATLAS 2AS CENTAUR R/B 2.9 18:17:42 10° NW 18:24:15 47° NE 18:25:35 42° ENE
COSMOS 2406 3.1 18:20:27 10° NNW 18:26:11 85° ENE 18:29:07 30° SSE
Cosmos 1627 Rocket 4.3 18:22:14 10° N 18:28:20 65° ENE 18:34:28 10° SSE
Cosmos 1656 Rocket 4.1 18:24:12 10° S 18:28:32 42° SE 18:28:32 42° SE
Cosmos 2195 Rocket 4.4 18:27:25 10° N 18:33:47 85° E 18:40:08 10° S
Cosmos 1536 Rocket 4.4 18:30:03 10° NNW 18:34:21 51° W 18:38:36 10° S
Okean 2 Rocket 3.2 18:32:15 10° SSW 18:36:38 72° WNW 18:37:52 45° N
Cosmos 1190 Rocket 4.3 18:34:44 10° SSW 18:40:00 68° WNW 18:42:26 32° N
Cosmos 2344 3.8 18:34:36 10° NW 18:42:27 81° NE 18:47:32 33° SE
Cosmos 676 Rocket 3.9 18:37:34 10° SSW 18:42:52 84° ESE 18:43:15 76° NE
Resurs 01 Rocket 3.2 18:46:22 26° N 18:46:22 26° N 18:48:19 10° N
Meteor 2-3 Rocket 3.7 18:39:57 10° NNW 18:45:42 85° W 18:50:00 18° S
Cosmos 2297 Rocket 4.4 18:47:20 10° N 18:48:17 12° N 18:48:17 12° N
ISS -1.4 18:48:35 10° W 18:50:07 25° W 18:50:07 25° W
Cosmos 1954 Rocket 4.3 18:47:44 10° SW 18:52:59 65° WNW 18:54:18 47° N
COSMO-SKYMED 1 3.5 18:57:48 42° WNW 18:58:03 42° WNW 19:01:56 10° SW
USA 281 3.0 19:02:00 74° E 19:02:26 77° ENE 19:09:01 10° NNW
Cosmos 1943 Rocket 4.1 19:29:23 10° W 19:33:52 24° NW 19:35:40 20° NNW
Cosmos 2278 Rocket 4.2 19:38:42 10° W 19:43:06 23° NW 19:44:37 20° NNW
SJ 16-02 4.2 19:50:55 10° W 19:52:17 15° WNW 19:52:17 15° WNW
CZ-4C R/B 4.4 20:05:11 10° NW 20:07:32 20° NNW 20:07:32 20° NNW
ATLAS 2AS CENTAUR R/B 3.8 20:08:45 10° NW 20:13:01 38° WNW 20:13:01 38° WNW
